User: anonymous   Login
Location: Caltech
(34.1382°N, 118.1253°W)
Time: 11:53:41
(UTC-07:00)
Language:

Cosmos 2084 - Orbit

View from above orbital plane
View from above orbital plane
View from above satellite
View from above satellite

Ground track
Ground track

The orbit data is extracted from the following two-line orbital elements,

1 20663U 90055A   16274.82726086 +.00000412 +00000-0 +52952-4 0  9999
2 20663 062.7942 013.6232 0132409 064.4985 296.9735 14.91349612421111
Epoch (UTC): 30 September 2016 19:51:15
Eccentricity: 0.0132409
inclination: 62.7942°
perigee height: 501 km
apogee height: 686 km
right ascension of ascending node: 13.6232°
argument of perigee: 64.4985°
revolutions per day: 14.91349612
mean anomaly at epoch: 296.9735°
orbit number at epoch: 42111

The dashed part of the orbit path shows where the satellite is in the earth's shadow,  

DLR